Location: *
(34.8620°S, 39.3380°E)
Time: 10:44:01
(UTC+00:00)

Hubble Space Telescope - Pass Details

Date: 27 July 2021
Orbit: 535 x 539 km, 28.5° (Epoch: 22 September)

Event Time Altitude Azimuth Distance (km) Brightness Sun altitude
Exits shadow 03:19:25 - 316° (NW) 2,634 4.0 -12.8°
Reaches altitude 10° 03:22:06 10° 334° (NNW) 1,789 3.3 -12.2°
Maximum altitude 03:24:58 18° 18° (NNE) 1,357 3.2 -11.7°
Drops below altitude 10° 03:27:49 10° 62° (ENE) 1,797 4.9 -11.1°
Sets 03:30:39 0° 81° (E) 2,692 6.5 -10.5°
